Starlink 3074

decayed
NORAD ID: 49170 Int'l Des: 2021-082 Owner: SPXS Country: US Constellation: starlink
LEOCIRCULAR
Group

About Starlink 3074

Description loading...

Altitude History

Altitude vs Time

uPlot chart will show altitude changes over time

Two-Line Element Set

1 49170U 21082AS 24352.61651825 .11901907 45169-5 16868-3 0 9994
2 49170 69.9775 323.9724 0006404 243.4063 239.7597 16.48725365179435
Epoch: Dec 17, 2024 • Age: 7801 hours

Current Status

Position data unavailable
Launch Date Sep 14, 2021
Age 4.1 years
Decay Date Dec 17, 2024
Type internet

Technical Details

Classification Payload
Mass 297.00 kg
Dry Mass 275.00 kg
Total Mass 297.00 kg
Length 0.20 m
Diameter 2.80 m
Span 9.00 m
Shape Box + pan
Manufacturer SPXS
Bus Type Starlink
Phase Status Reentered
Owner/State SPXS/US

Large Constellations

Loading constellations...